Torna al catalogo

ATLAS 5 CENTAUR DEB

AttivoHEO
NORAD 44691·DEBRIS·🇺🇸 United States

Lanciato Oct 17, 2018 da Cape Canaveral Space Force Station

Loading…

Prossimi Passaggi (prossime 24 ore)

TLE

In scadenzaSource: Space-Track

Epoca: Aug 30, 2026, 18:34 UTC

1 44691U 18079BD  26242.77369456 -.00000122  00000-0  00000-0 0  9998
2 44691  13.2871  50.1227 4444394 279.3567  34.5531  1.76822986 45500

Traccia ATLAS 5 CENTAUR DEB in tempo reale con AllMySat

Download on the App Store